• In Deutschland
  • Länderverzeichnis
  • Für 7 Tage
  • Wassertemperatur
  • Satellitenkarten
  • Wetterkarte
  • Widgets
  • user-avatar
    Anmelden

    Stündliche Wetter Bad Woerishofen

    Heute, 18 Oktober, Mittwoch

    Zeit Temperatur Niederschläge Wind Luftdruck Luftfeuchtigkeit
    00:00 +11°C° 0 mm 1 m/S 707 mmHg 78%
    01:00 +11°C° 0 mm 1 m/S 707 mmHg 77%
    02:00 +11°C° 0 mm 1 m/S 707 mmHg 77%
    03:00 +10°C° 0 mm 1 m/S 707 mmHg 76%
    04:00 +10°C° 0 mm 1 m/S 706 mmHg 75%
    05:00 +10°C° 0 mm 1 m/S 706 mmHg 74%
    06:00 +9°C° 0 mm 1 m/S 706 mmHg 73%
    07:00 +9°C° 0 mm 1 m/S 706 mmHg 71%
    08:00 +12°C° 0 mm 1 m/S 706 mmHg 66%
    09:00 +14°C° 0 mm 1 m/S 706 mmHg 61%
    10:00 +18°C° 0 mm 1 m/S 706 mmHg 56%
    11:00 +19°C° 0 mm 1 m/S 706 mmHg 53%
    12:00 +20°C° 0 mm 1 m/S 706 mmHg 51%
    13:00 +21°C° 0 mm 1 m/S 706 mmHg 49%
    14:00 +20°C° 0 mm 1 m/S 705 mmHg 54%
    15:00 +19°C° 0 mm 1 m/S 705 mmHg 60%
    16:00 +19°C° 0 mm 1 m/S 705 mmHg 65%
    17:00 +16°C° 0 mm 1 m/S 705 mmHg 71%
    18:00 +13°C° 0 mm 1 m/S 705 mmHg 77%
    19:00 +11°C° 0 mm 1 m/S 705 mmHg 83%
    20:00 +11°C° 0 mm 1 m/S 705 mmHg 83%
    21:00 +11°C° 0 mm 1 m/S 705 mmHg 83%
    22:00 +10°C° 0 mm 1 m/S 705 mmHg 83%
    23:00 +10°C° 0 mm 1 m/S 705 mmHg 82%

    Morgen, 19 Oktober, Donnerstag

    Zeit Temperatur Niederschläge Wind Luftdruck Luftfeuchtigkeit
    00:00 +10°C° 0 mm 1 m/S 705 mmHg 81%
    01:00 +9°C° 0 mm 1 m/S 704 mmHg 80%
    02:00 +9°C° 0 mm 1 m/S 704 mmHg 79%
    03:00 +9°C° 0 mm 1 m/S 704 mmHg 78%
    04:00 +9°C° 0 mm 1 m/S 704 mmHg 77%
    05:00 +8°C° 0 mm 1 m/S 704 mmHg 75%
    06:00 +8°C° 0 mm 1 m/S 704 mmHg 74%
    07:00 +8°C° 0 mm 1 m/S 704 mmHg 73%
    08:00 +11°C° 0 mm 1 m/S 704 mmHg 67%
    09:00 +13°C° 0 mm 1 m/S 704 mmHg 62%
    10:00 +16°C° 0 mm 1 m/S 704 mmHg 56%
    11:00 +18°C° 0 mm 1 m/S 704 mmHg 54%
    12:00 +19°C° 0 mm 1 m/S 704 mmHg 53%
    13:00 +19°C° 0 mm 2 m/S 704 mmHg 51%
    14:00 +18°C° 0 mm 2 m/S 703 mmHg 57%
    15:00 +17°C° 0 mm 2 m/S 703 mmHg 63%
    16:00 +17°C° 0 mm 2 m/S 703 mmHg 69%
    17:00 +15°C° 0 mm 2 m/S 703 mmHg 75%
    18:00 +13°C° 0 mm 2 m/S 703 mmHg 80%
    19:00 +10°C° 0 mm 2 m/S 703 mmHg 86%
    20:00 +10°C° 0 mm 2 m/S 703 mmHg 85%
    21:00 +10°C° 0 mm 1 m/S 703 mmHg 85%
    22:00 +10°C° 0 mm 1 m/S 703 mmHg 85%
    23:00 +10°C° 0 mm 1 m/S 703 mmHg 85%

    übermorgen, 20 Oktober, Freitag

    Zeit Temperatur Niederschläge Wind Luftdruck Luftfeuchtigkeit
    00:00 +9°C° 0 mm 1 m/S 703 mmHg 84%
    01:00 +9°C° 0 mm 1 m/S 703 mmHg 84%
    02:00 +9°C° 0 mm 1 m/S 703 mmHg 84%
    03:00 +9°C° 0 mm 1 m/S 703 mmHg 85%
    04:00 +9°C° 0 mm 1 m/S 703 mmHg 85%
    05:00 +9°C° 0 mm 1 m/S 704 mmHg 85%
    06:00 +8°C° 0 mm 2 m/S 704 mmHg 85%
    07:00 +8°C° 0 mm 2 m/S 704 mmHg 85%
    08:00 +10°C° 0 mm 2 m/S 705 mmHg 79%
    09:00 +13°C° 0 mm 2 m/S 705 mmHg 72%
    10:00 +16°C° 0 mm 2 m/S 705 mmHg 66%
    11:00 +17°C° 0 mm 2 m/S 705 mmHg 63%
    12:00 +18°C° 0 mm 2 m/S 705 mmHg 60%
    13:00 +19°C° 0 mm 2 m/S 705 mmHg 58%
    14:00 +18°C° 0 mm 2 m/S 705 mmHg 62%
    15:00 +19°C° 0 mm 1 m/S 705 mmHg 66%
    16:00 +18°C° 0 mm 1 m/S 705 mmHg 70%
    17:00 +15°C° 0 mm 1 m/S 706 mmHg 76%
    18:00 +14°C° 0 mm 1 m/S 706 mmHg 81%
    19:00 +12°C° 0 mm 1 m/S 706 mmHg 87%
    20:00 +11°C° 0 mm 1 m/S 706 mmHg 87%
    21:00 +11°C° 0 mm 1 m/S 706 mmHg 87%
    22:00 +10°C° 0 mm 2 m/S 706 mmHg 87%
    23:00 +10°C° 0 mm 2 m/S 706 mmHg 86%

    21 Oktober, Samstag

    Zeit Temperatur Niederschläge Wind Luftdruck Luftfeuchtigkeit
    00:00 +10°C° 0 mm 1 m/S 706 mmHg 84%
    01:00 +10°C° 0 mm 1 m/S 706 mmHg 83%
    02:00 +10°C° 0 mm 1 m/S 706 mmHg 81%
    03:00 +10°C° 0 mm 1 m/S 706 mmHg 80%
    04:00 +10°C° 0 mm 1 m/S 706 mmHg 79%
    05:00 +10°C° 0 mm 1 m/S 706 mmHg 77%
    06:00 +9°C° 0 mm 2 m/S 706 mmHg 75%
    07:00 +10°C° 0 mm 2 m/S 706 mmHg 74%
    08:00 +13°C° 0 mm 1 m/S 706 mmHg 70%
    09:00 +15°C° 0 mm 1 m/S 706 mmHg 65%
    10:00 +18°C° 0 mm 1 m/S 706 mmHg 61%
    11:00 +19°C° 0 mm 1 m/S 706 mmHg 58%
    12:00 +20°C° 0 mm 1 m/S 706 mmHg 55%
    13:00 +22°C° 0 mm 1 m/S 706 mmHg 52%
    14:00 +21°C° 0 mm 1 m/S 706 mmHg 57%
    15:00 +20°C° 0 mm 1 m/S 706 mmHg 62%
    16:00 +19°C° 0 mm 1 m/S 706 mmHg 67%
    17:00 +16°C° 0 mm 1 m/S 706 mmHg 72%
    18:00 +15°C° 0 mm 1 m/S 706 mmHg 76%
    19:00 +13°C° 0 mm 1 m/S 706 mmHg 81%
    20:00 +13°C° 0 mm 2 m/S 706 mmHg 83%
    21:00 +12°C° 0 mm 2 m/S 706 mmHg 84%
    22:00 +12°C° 0 mm 2 m/S 707 mmHg 86%
    23:00 +12°C° 0,1 mm 2 m/S 707 mmHg 89%

    22 Oktober, Sonntag

    Zeit Temperatur Niederschläge Wind Luftdruck Luftfeuchtigkeit
    00:00 +12°C° 0,1 mm 1 m/S 707 mmHg 91%
    01:00 +12°C° 0,1 mm 1 m/S 707 mmHg 93%
    02:00 +12°C° 0,7 mm 2 m/S 707 mmHg 94%
    03:00 +10°C° 0,7 mm 2 m/S 707 mmHg 94%
    04:00 +10°C° 0,7 mm 3 m/S 707 mmHg 94%
    05:00 +9°C° 1,3 mm 3 m/S 706 mmHg 95%
    06:00 +9°C° 1,3 mm 3 m/S 706 mmHg 95%
    07:00 +8°C° 1,3 mm 3 m/S 706 mmHg 96%
    08:00 +8°C° 1,1 mm 3 m/S 707 mmHg 95%
    09:00 +8°C° 1,1 mm 3 m/S 707 mmHg 94%
    10:00 +8°C° 1,1 mm 3 m/S 707 mmHg 94%
    11:00 +8°C° 0,8 mm 3 m/S 707 mmHg 93%
    12:00 +8°C° 0,8 mm 3 m/S 707 mmHg 92%
    13:00 +7°C° 0,8 mm 4 m/S 708 mmHg 91%
    14:00 +8°C° 0,3 mm 3 m/S 708 mmHg 90%
    15:00 +8°C° 0,3 mm 3 m/S 708 mmHg 89%
    16:00 +8°C° 0,3 mm 3 m/S 708 mmHg 89%
    17:00 +7°C° 0,1 mm 3 m/S 709 mmHg 90%
    18:00 +5°C° 0,1 mm 3 m/S 709 mmHg 92%
    19:00 +6°C° 0,1 mm 2 m/S 709 mmHg 94%
    20:00 +5°C° 0 mm 2 m/S 710 mmHg 94%
    21:00 +5°C° 0 mm 2 m/S 710 mmHg 94%
    22:00 +3°C° 0 mm 3 m/S 710 mmHg 95%
    23:00 +3°C° 0 mm 3 m/S 711 mmHg 95%

    23 Oktober, Montag

    Zeit Temperatur Niederschläge Wind Luftdruck Luftfeuchtigkeit
    00:00 +3°C° 0 mm 3 m/S 711 mmHg 94%
    01:00 +2°C° 0 mm 3 m/S 711 mmHg 94%
    02:00 +2°C° 0 mm 3 m/S 711 mmHg 94%
    03:00 +2°C° 0 mm 3 m/S 711 mmHg 94%
    04:00 +2°C° 0 mm 3 m/S 711 mmHg 94%
    05:00 +3°C° 0 mm 2 m/S 712 mmHg 94%
    06:00 +3°C° 0 mm 2 m/S 712 mmHg 94%
    07:00 +2°C° 0 mm 2 m/S 712 mmHg 94%
    08:00 +4°C° 0 mm 2 m/S 712 mmHg 88%
    09:00 +5°C° 0 mm 3 m/S 712 mmHg 82%
    10:00 +8°C° 0 mm 3 m/S 712 mmHg 77%
    11:00 +9°C° 0 mm 3 m/S 712 mmHg 70%
    12:00 +10°C° 0 mm 2 m/S 712 mmHg 64%
    13:00 +13°C° 0 mm 2 m/S 712 mmHg 58%
    14:00 +13°C° 0 mm 2 m/S 711 mmHg 61%
    15:00 +12°C° 0 mm 1 m/S 711 mmHg 64%
    16:00 +12°C° 0 mm 1 m/S 710 mmHg 68%
    17:00 +10°C° 0 mm 1 m/S 711 mmHg 72%
    18:00 +9°C° 0 mm 1 m/S 711 mmHg 77%
    19:00 +7°C° 0 mm 1 m/S 711 mmHg 81%
    20:00 +7°C° 0 mm 1 m/S 711 mmHg 80%
    21:00 +7°C° 0 mm 1 m/S 711 mmHg 78%
    22:00 +6°C° 0 mm 2 m/S 710 mmHg 76%
    23:00 +6°C° 0 mm 2 m/S 710 mmHg 74%
    Mehr zeigen